This is the latest recevied weather packets stored in our database for station/object KM4NDN. If no packets are shown the sender has not sent any weather packets the latest 10 day(s).
| Time | Temp. | Humidity | Pressure | Rain* | Wind** | Luminosity | Snow |
|---|---|---|---|---|---|---|---|
| 1778195410 | 12.78° C | 44% | 1010.3 hPa | 0 mm | - | 47 W/m² | - |
| 1778195107 | 12.78° C | 44% | 1010.5 hPa | 0 mm | - | 62 W/m² | - |
| 1778194802 | 12.78° C | 43% | 1010.5 hPa | 0 mm | - | 87 W/m² | - |
| 1778194498 | 13.33° C | 42% | 1010.4 hPa | 0 mm | - | 60 W/m² | - |
| 1778194195 | 13.33° C | 41% | 1010.8 hPa | 0 mm | - | 119 W/m² | - |
| 1778193890 | 13.33° C | 40% | 1010.8 hPa | 0 mm | - | 146 W/m² | - |
| 1778193587 | 13.89° C | 38% | 1010.7 hPa | 0 mm | - | 91 W/m² | - |
| 1778193283 | 13.89° C | 37% | 1010.5 hPa | 0 mm | - | 150 W/m² | - |
| 1778192980 | 13.89° C | 38% | 1010.5 hPa | 0 mm | - | 211 W/m² | - |
| 1778192677 | 13.89° C | 39% | 1010.5 hPa | 0 mm | - | 231 W/m² | - |
| 1778192374 | 13.89° C | 40% | 1010.7 hPa | 0 mm | - | 271 W/m² | - |
| 1778192071 | 13.89° C | 38% | 1010.8 hPa | 0 mm | - | 172 W/m² | - |
| 1778191766 | 13.89° C | 40% | 1010.7 hPa | 0 mm | - | 301 W/m² | - |
| 1778191465 | 13.33° C | 41% | 1010.7 hPa | 0 mm | - | 316 W/m² | - |
| 1778191161 | 13.33° C | 38% | 1010.6 hPa | 0 mm | - | 154 W/m² | - |
| 1778190858 | 13.33° C | 36% | 1010.4 hPa | 0 mm | - | 209 W/m² | - |
| 1778190555 | 12.78° C | 37% | 1010.3 hPa | 0 mm | - | 124 W/m² | - |
| 1778190253 | 12.78° C | 39% | 1010.5 hPa | 0 mm | - | 130 W/m² | - |
| 1778189948 | 13.33° C | 37% | 1010.5 hPa | 0 mm | - | 96 W/m² | - |
| 1778189645 | 13.89° C | 38% | 1010.5 hPa | 0 mm | - | 174 W/m² | - |
| 1778189342 | 13.33° C | 37% | 1010.4 hPa | 0 mm | - | 178 W/m² | - |
| 1778189037 | 13.89° C | 36% | 1010.4 hPa | 0 mm | - | 113 W/m² | - |
| 1778188734 | 13.89° C | 35% | 1010.3 hPa | 0 mm | - | 446 W/m² | - |
| 1778188431 | 12.78° C | 37% | 1010.5 hPa | 0 mm | - | 463 W/m² | - |
| 1778188128 | 12.78° C | 39% | 1010.7 hPa | 0 mm | - | 94 W/m² | - |
* Rain latest hour (hover to see other rain measurements)
** Current wind speed in m/s (hover to see current wind gust speed)